This demonstration page uses our WeatherBlox Daily Observations layout. Learn more.

Left ArrowRight Arrow

40.92945, -100.16068

Hourly Observations for February 5, 2016

Temp ( °F °C ) Dew Point ( °F °C ) Humidity (%) Winds ( mph kmh ) Pressure ( in mb ) Visibility ( mi km ) Precip ( " mm )
12:15 am 00:15 Mostly Cloudy 20 -6.5 15 -9.2 81 81 N N/A 30.39 1029 10 16.0934 N/A
12:35 am 00:35 Cloudy 22 -5.5 17 -8.3 81 81 N N/A 30.39 1029 10 16.0934 N/A
12:55 am 00:55 Cloudy 22 -5.7 16 -8.9 78 78 WSW 3 6 30.39 1029 10 16.0934 N/A
1:15 am 01:15 Cloudy 24 -4.6 17 -8.1 77 77 W 3 6 30.39 1029 10 16.0934 N/A
1:35 am 01:35 Cloudy 24 -4.6 18 -8 77 77 NW 3 6 30.39 1029 10 16.0934 N/A
1:55 am 01:55 Cloudy 24 -4.6 19 -7.5 80 80 N N/A 30.39 1029 10 16.0934 N/A
2:15 am 02:15 Cloudy 24 -4.4 19 -7.1 82 82 W 5 7 30.39 1029 10 16.0934 N/A
2:35 am 02:35 Cloudy 25 -3.9 20 -6.6 82 82 W 3 6 30.39 1029 10 16.0934 N/A
2:55 am 02:55 Cloudy with Light Snow 28 -2.1 22 -5.5 78 78 W 8 13 30.36 1028 4 6.43736 N/A
3:15 am 03:15 Cloudy with Light Snow 28 -2 24 -4.3 84 84 W 7 11 30.36 1028 5 8.0467 N/A
3:35 am 03:35 Cloudy with Light Snow 28 -2 25 -4 86 86 WSW 6 9 30.36 1028 5 8.0467 N/A
3:55 am 03:55 Cloudy with Light Snow 29 -1.8 26 -3.5 88 88 WSW 6 9 30.36 1028 2.5 4.02335 N/A
4:15 am 04:15 Cloudy with Light Snow 29 -1.6 27 -3 90 90 W 5 7 30.33 1027 3 4.82802 N/A
4:35 am 04:35 Cloudy with Light Snow 30 -1.1 27 -2.6 90 90 W 9 15 30.33 1027 5 8.0467 N/A
4:55 am 04:55 Cloudy with Light Snow 30 -1 28 -2.5 90 90 W 9 15 30.33 1027 3 4.82802 N/A
5:15 am 05:15 Cloudy with Light Snow 30 -1 28 -2.5 90 90 W 9 15 30.33 1027 3 4.82802 N/A
5:35 am 05:35 Cloudy with Light Snow 30 -1 28 -2.3 91 91 W 9 15 30.33 1027 5 8.0467 N/A
5:55 am 05:55 Cloudy with Light Snow 31 -0.7 28 -2.1 90 90 W 9 15 30.33 1027 5 8.0467 N/A
6:15 am 06:15 Cloudy with Light Snow 31 -0.3 28 -2 88 88 W 9 15 30.3 1026 5 8.0467 N/A
6:35 am 06:35 Cloudy with Light Snow 31 -0.3 29 -1.7 90 90 WSW 8 13 30.3 1026 3 4.82802 N/A
6:55 am 06:55 Cloudy with Light Snow 32 -0.1 29 -1.5 90 90 WSW 7 11 30.3 1026 5 8.0467 N/A
7:15 am 07:15 Cloudy with Light Snow 32 undefined 30 -1.2 92 92 WSW 6 9 30.3 1026 10 16.0934 N/A
7:35 am 07:35 Cloudy with Light Snow 32 0.1 30 -1.2 91 91 W 6 9 30.33 1027 5 8.0467 N/A
7:55 am 07:55 Cloudy with Light Snow 32 undefined 30 -1.1 92 92 SW 6 9 30.33 1027 3 4.82802 N/A
8:15 am 08:15 Cloudy 32 0.2 30 -1.3 90 90 WSW 7 11 30.33 1027 10 16.0934 N/A
8:35 am 08:35 Cloudy 33 0.5 29 -1.4 87 87 WSW 7 11 30.33 1027 10 16.0934 N/A
8:55 am 08:55 Mostly Cloudy 33 0.4 29 -1.7 86 86 WSW 8 13 30.33 1027 10 16.0934 N/A
9:15 am 09:15 Partly Cloudy 33 0.5 28 -2 84 84 WSW 9 15 30.33 1027 10 16.0934 N/A
9:35 am 09:35 Partly Cloudy 33 0.5 28 -2.3 82 82 WSW 8 13 30.33 1027 10 16.0934 N/A
9:55 am 09:55 Sunny 33 0.7 28 -2.5 79 79 WSW 10 17 30.33 1027 10 16.0934 N/A
10:15 am 10:15 Sunny 34 1 27 -3 75 75 W 12 19 30.33 1027 10 16.0934 N/A
10:35 am 10:35 Sunny 34 1 26 -3.2 74 74 W 10 17 30.33 1027 10 16.0934 N/A
10:55 am 10:55 Sunny 34 1.2 25 -4 69 69 WNW 14 22 30.33 1027 10 16.0934 N/A
11:15 am 11:15 Sunny 34 1.1 25 -4.1 69 69 WNW 12 19 30.33 1027 10 16.0934 N/A
11:35 am 11:35 Sunny 34 1 24 -4.3 68 68 WNW 15 24 30.33 1027 10 16.0934 N/A
11:55 am 11:55 Sunny 34 0.9 24 -4.4 68 68 WNW 17 28 30.33 1027 10 16.0934 N/A
12:15 pm 12:15 Sunny 33 0.8 24 -4.3 69 69 WNW 13 20 30.33 1027 10 16.0934 N/A
12:35 pm 12:35 Sunny 34 1 24 -4.2 69 69 WNW 17 28 30.33 1027 10 16.0934 N/A
12:55 pm 12:55 Partly Cloudy 33 0.6 24 -4.2 71 71 WNW 14 22 30.33 1027 10 16.0934 N/A
1:15 pm 13:15 Sunny 34 1 25 -4.1 69 69 WNW 15 24 30.33 1027 10 16.0934 N/A
1:35 pm 13:35 Partly Cloudy 35 1.6 26 -3.5 69 69 WNW 14 22 30.3 1026 10 16.0934 N/A
1:55 pm 13:55 Cloudy 35 1.7 26 -3.3 70 70 WNW 13 20 30.3 1026 10 16.0934 N/A
2:15 pm 14:15 Cloudy 35 1.9 26 -3.2 69 69 WNW 12 19 30.3 1026 10 16.0934 N/A
2:35 pm 14:35 Mostly Cloudy 35 1.9 27 -3 70 70 WNW 9 15 30.3 1026 10 16.0934 N/A
2:55 pm 14:55 Partly Cloudy 36 2.4 27 -2.6 70 70 WNW 10 17 30.3 1026 10 16.0934 N/A
3:15 pm 15:15 Partly Cloudy 37 2.5 28 -2.3 71 71 WNW 10 17 30.27 1025 10 16.0934 N/A
3:35 pm 15:35 Partly Cloudy 37 2.7 28 -2.1 71 71 WNW 12 19 30.27 1025 10 16.0934 N/A
3:55 pm 15:55 Mostly Cloudy 38 3.1 28 -2.2 69 69 NNW 13 20 30.27 1025 10 16.0934 N/A
4:15 pm 16:15 Mostly Cloudy 37 3 28 -2.3 68 68 NNW 15 24 30.3 1026 10 16.0934 N/A
4:35 pm 16:35 Cloudy 37 2.5 28 -2.1 72 72 NNW 14 22 30.3 1026 10 16.0934 N/A
4:55 pm 16:55 Cloudy 36 2.2 28 -2 74 74 NW 8 13 30.33 1027 10 16.0934 N/A
5:15 pm 17:15 Cloudy 36 2.1 29 -1.9 75 75 NW 7 11 30.33 1027 10 16.0934 N/A
5:35 pm 17:35 Cloudy 36 2 29 -1.9 76 76 NW 9 15 30.33 1027 10 16.0934 N/A
5:55 pm 17:55 Cloudy 36 2.3 27 -2.7 70 70 NNW 12 19 30.33 1027 10 16.0934 N/A
6:15 pm 18:15 Cloudy 35 1.8 27 -2.7 72 72 NNW 8 13 30.33 1027 10 16.0934 N/A
6:35 pm 18:35 Cloudy 35 1.6 27 -2.6 74 74 NNW 9 15 30.33 1027 10 16.0934 N/A
6:55 pm 18:55 Partly Cloudy 33 0.8 25 -4 71 71 NNW 10 17 30.33 1027 10 16.0934 N/A
7:15 pm 19:15 Clear 31 -0.6 24 -4.5 75 75 NNW 8 13 30.36 1028 10 16.0934 N/A
7:35 pm 19:35 Clear 29 -1.4 24 -4.7 79 79 NW 8 13 30.36 1028 10 16.0934 N/A
7:55 pm 19:55 Clear 28 -2.5 22 -5.4 81 81 NW 8 13 30.36 1028 10 16.0934 N/A
8:15 pm 20:15 Clear 26 -3.3 21 -6.1 81 81 NNW 8 13 30.42 1030 10 16.0934 N/A
8:35 pm 20:35 Clear 26 -3.5 22 -5.7 85 85 NNW 5 7 30.42 1030 10 16.0934 N/A
8:55 pm 20:55 Clear 24 -4.4 20 -6.4 86 86 NNW 5 7 30.42 1030 10 16.0934 N/A
9:15 pm 21:15 Clear 23 -5.2 19 -7.1 87 87 NW 5 7 30.42 1030 10 16.0934 N/A
9:35 pm 21:35 Clear with Mist and Fog 22 -5.5 19 -7.1 89 89 WNW 6 9 30.42 1030 5 8.0467 N/A
9:55 pm 21:55 Clear 20 -6.5 17 -8.1 89 89 W 6 9 30.45 1031 10 16.0934 N/A
10:15 pm 22:15 Clear 19 -7 16 -8.7 88 88 W 8 13 30.45 1031 10 16.0934 N/A
10:35 pm 22:35 Clear 21 -5.9 18 -7.6 88 88 W 7 11 30.45 1031 10 16.0934 N/A
10:55 pm 22:55 Clear 20 -6.7 17 -8.5 87 87 W 7 11 30.45 1031 10 16.0934 N/A
11:15 pm 23:15 Clear 19 -7 17 -8.6 89 89 WSW 6 9 30.45 1031 10 16.0934 N/A
11:35 pm 23:35 Clear 20 -6.8 17 -8.5 88 88 W 6 9 30.45 1031 10 16.0934 N/A
11:55 pm 23:55 Clear 18 -7.9 15 -9.5 88 88 W 5 7 30.45 1031 10 16.0934 N/A

Powered by AerisWeather